SCP
0 0 0 0 0 0 0 0 0 0 0 0 0 0 0 0 0 0 0 0 0 0 0 0 0 0 0 0 0 0 0 0 0 0 0 0 0 0 0 0 0 0 0 0
0 0 0 0 0 0 0 0 0 0 0 0 0 0 0 0 0 0 0 0 0 0 0 0 0 0 0 0 0 0 0 0 0 0 0 0 0 0 0 0 0 0 0 0
0 0 0 0 0 0 0 0 0 0 0 0 0 0 0 0 0 0 0 0 0 0 0 0 0 0 0 0 0 0 0 0 0 0 -0 -0 -0 0 0 0 0 0 0 0
0 0 0 0 0 0 0 0 0 0 0 0 0 0 0 0 0 0 0 0 0 0 0 0 0 0 0 0 0 0 0 0 0 0 0 0 0 0 0 0 0 0 0 0
0 0 0 0 0 0 0 0 0 0 0 0 0 0 0 0 0 0 0 0 0 0 0 0 0 0 0 0 -0 -0 0 0 0 0 0 0 0 0 0 0 0 0 0 0
0 0 0 0 0 0 0 0 0 0 0 0 0 0 0 0 0 0 0 0 0 0 0 -0 -0 0 0 0 0 0 0 0 0 0 0 0 0 0 0 0 0 0 0 0
0 0 0 0 0 0 0 0 0 0 0 0 0 0 0 0 0 0 0 0 0 0 0 -0 -0 0 0 0 0 0 0 0 0 0 0 0 0 0 0 0 0 0 0 0
0 0 0 0 0 0 0 0 0 0 0 0 0 0 0 0 0 0 0 0 0 0 -0 -0 -0 0 0 0 0 0 0 0 0 0 0 0 0 0 0 0 0 0 0 0
0 0 0 0 0 0 0 0 0 0 0 0 0 0 0 0 0 0 0 0 0 0 0 0 0 0 0 0 0 0 0 0 0 0 0 0 0 0 0 -0 -0 0 0 0
0 0 0 0 0 0 0 0 0 0 0 0 0 0 0 0 0 0 0 0 0 0 0 0 0 0 0 0 0 0 0 0 -0 -0 0 0 0 0 0 -0 -0 0 0 0
0 0 0 0 0 0 0 0 -0 -0 0 0 0 0 0 0 0 0 0 0 0 0 0 0 0 0 0 0 0 0 0 0 0 0 0 0 0 0 0 0 0 0 0 0
0 0 0 0 0 0 0 0 0 0 0 0 0 0 0 0 0 0 0 0 0 0 0 0 0 0 0 0 0 0 0 0 0 0 0 0 0 0 -0 0 0 0 0 0
0 0 0 0 0 0 0 0 0 0 0 0 0 0 0 0 0 0 0 0 0 0 0 0 0 0 0 0 0 0 0 0 0 0 0 0 0 0 0 0 0 0 0 0
0 0 0 0 0 0 0 0 0 0 0 0 0 0 0 0 0 0 0 0 0 0 0 0 0 0 0 0 0 0 0 0 0 0 0 0 0 0 0 0 0 0 0 0
0 0 0 -0 -0 0 0 0 0 0 0 0 0 0 0 0 0 0 0 0 0 0 0 0 0 0 0 0 0 0 0 0 0 0 0 0 0 0 0 0 0 0 0 0
0 0 -0 -0 0 0 0 0 0 0 0 0 0 0 0 0 0 0 0 0 0 0 0 0 0 0 0 0 0 0 0 0 0 0 0 0 0 0 0 0 0 0 0 0
0 0 0 0 0 0 0 0 0 0 0 0 0 0 0 0 0 0 0 0 0 0 0 0 0 0 0 0 0 0 0 0 0 0 0 0 0 0 0 0 0 0 0 0
0 0 0 0 0 0 0 0 0 0 0 0 0 0 0 0 0 0 0 0 0 0 0 0 0 0 0 0 0 0 0 0 0 0 0 0 0 0 0 0 0 0 0 0
0 0 0 0 0 0 0 0 0 0 0 0 0 0 0 0 0 0 0 0 0 0 0 0 0 0 0 0 0 0 0 0 0 0 0 0 0 0 0 0 0 0 0 0
-0 -0 0 0 0 0 0 0 0 0 0 0 0 0 0 0 0 0 0 0 0 0 0 0 0 0 0 0 0 0 0 0 0 0 0 0 0 0 0 0 0 0 0 0
0 0 0 0 0 0 0 0 0 0 0 0 0 0 0 0 0 0 0 0 0 0 0 0 0 0 0 0 0 0 0 0 0 0 0 0 0 0 0 0 0 0 0 0
-0 0 0 0 0 0 0 0 0 0 0 0 0 0 0 0 0 0 0 0 0 0 0 0 0 0 0 0 0 0 0 0 0 0 0 0 0 0 0 0 0 0 0 0
0 0 0 0 0 0 0 0 0 0 0 0 0 0 0 0 0 0 0 0 0 0 0 0 0 0 0 0 0 0 0 0 0 0 0 0 0 0 0 0 0 0 0 0
0 0 0 0 0 0 0 0 0 0 0 0 0 0 0 0 0 0 0 0 0 0 0 0 0 0 0 0 0 0 0 0 0 0 0 0 0 0 0 0 0 0 0 0
-0 -0 -0 -0 -0 -0 -0 0 0 0 0 0 0 0 0 0 0 0 0 0 0 0 0 0 0 0 0 0 0 0 0 0 0 0 0 0 0 0 0 0 0 0 0 0
0 0 0 0 0 -0 -0 -0 -0 0 0 0 0 0 0 0 0 0 0 0 0 0 0 0 0 0 0 0 0 0 0 0 0 0 0 0 0 0 0 0 0 0 0 0
0 0 0 0 0 0 -0 -0 -0 0 0 0 0 0 -0 -0 0 0 0 0 0 0 0 0 0 0 0 0 0 0 0 0 0 0 0 0 0 0 0 0 0 0 0 0
Wind_Speed
7 6 5 7 8 6 8 8 8 9 9 12 9 7 8 7 6 6 6 5 4 3 3 3 3 3 3 3 3 3 4 4 5 4 3 3 3 3 3 3 3 3 3 3
5 4 5 8 10 8 9 7 8 8 11 7 5 4 5 6 6 6 6 6 6 5 4 3 4 3 3 3 3 4 4 5 4 3 3 3 3 2 2 2 2 2 3 3
4 4 5 8 7 7 6 6 6 8 8 5 5 6 6 6 5 6 7 7 6 5 4 4 4 4 4 4 3 4 4 4 3 4 4 3 3 2 2 2 2 3 3 3
3 4 6 6 1 4 4 5 5 5 5 5 6 7 6 4 4 6 7 7 6 5 5 4 3 3 2 2 3 4 4 3 3 4 4 3 3 3 3 2 2 2 2 3
1 3 9 8 2 3 3 4 3 4 5 6 6 5 4 2 3 5 6 6 6 5 5 4 3 2 1 2 2 3 4 4 4 4 4 3 3 3 2 2 2 2 2 2
3 4 8 5 1 1 2 4 2 1 4 4 4 4 6 6 6 7 6 5 5 5 4 4 3 1 1 2 3 4 5 4 4 4 4 4 4 3 2 2 2 2 2 2
5 6 10 6 1 2 2 5 2 2 3 3 3 5 7 7 7 6 6 6 4 4 4 4 3 1 2 3 5 5 3 3 3 4 4 4 3 2 2 2 1 1 2 2
6 6 10 2 3 4 5 3 2 3 3 4 6 7 7 7 7 6 6 6 4 4 5 4 2 2 3 4 4 2 2 2 3 3 3 3 3 2 2 3 2 2 2 2
9 9 3 2 4 4 2 3 3 3 4 4 6 6 7 6 6 6 6 6 4 4 5 4 2 2 4 5 3 2 2 3 3 3 2 3 4 3 2 3 2 2 2 2
5 7 5 5 4 4 3 4 4 5 5 5 6 6 7 7 6 6 6 5 4 4 5 5 4 4 4 4 2 2 3 3 2 3 2 2 3 3 3 3 3 3 3 3
6 7 6 4 4 4 4 4 5 5 4 5 6 7 7 6 6 6 6 5 4 4 5 6 5 4 4 3 2 3 3 3 3 3 3 3 3 4 5 5 5 5 4 4
8 6 5 7 5 4 4 5 5 5 6 5 5 6 6 6 6 6 6 5 5 5 6 6 5 5 4 3 3 3 3 3 3 3 3 3 3 2 4 5 6 7 6 5
7 5 5 6 5 4 4 5 5 5 6 7 6 5 6 6 6 5 6 6 6 6 6 6 5 5 5 3 3 4 4 4 3 3 3 3 3 3 2 2 4 5 6 6
4 3 5 5 5 5 5 5 5 5 5 5 5 5 5 6 6 6 7 7 6 6 6 5 5 6 5 3 3 4 4 4 4 3 3 3 3 3 3 3 2 2 3 5
5 5 6 5 4 5 4 4 4 5 5 5 4 5 5 6 7 7 7 6 5 6 6 5 5 6 4 3 3 3 3 3 3 3 3 3 3 3 3 3 3 2 2 3
4 4 3 4 5 5 4 4 5 6 6 6 6 6 6 6 7 7 7 5 5 6 6 6 6 6 3 3 3 3 3 4 3 2 2 2 2 2 3 3 3 3 3 3
3 4 4 5 6 6 5 5 5 6 6 6 7 7 6 6 6 7 6 5 5 6 6 6 6 5 3 3 3 2 2 3 3 2 2 3 3 3 3 3 3 4 4 4
4 4 4 5 5 6 7 6 5 6 6 6 6 5 5 6 7 7 7 6 5 6 6 5 5 4 3 3 2 2 2 2 2 2 2 2 3 3 3 3 3 4 3 3
2 3 3 4 5 5 5 6 6 5 6 5 5 5 6 6 6 6 6 5 5 6 6 4 5 3 3 3 3 2 2 2 2 2 2 3 3 2 3 3 3 3 3 3
1 2 3 4 4 4 5 5 5 5 5 5 5 5 5 6 5 5 5 5 5 5 5 5 4 3 3 3 3 2 2 3 3 2 2 2 3 3 3 3 3 3 3 3
3 3 3 4 4 5 4 4 4 5 5 4 4 5 6 6 5 4 4 5 5 4 4 5 3 2 2 3 3 2 2 3 3 3 3 3 2 2 3 3 3 3 3 3
3 3 3 4 4 5 5 4 4 4 5 4 4 4 5 5 5 4 4 4 5 6 5 3 2 4 5 4 2 2 2 3 3 2 3 3 3 3 3 3 3 3 3 3
3 3 4 4 4 5 5 4 4 4 4 4 4 4 4 4 4 3 5 3 3 6 5 3 5 7 7 3 1 2 2 2 3 3 3 3 3 3 3 3 3 3 3 3
3 3 4 3 3 3 5 5 4 4 4 4 4 4 4 4 4 3 3 6 8 8 4 5 8 8 6 1 1 2 2 2 2 2 3 3 3 3 3 3 3 3 3 4
3 3 3 3 3 3 4 4 4 4 4 4 4 4 3 2 3 4 4 4 7 7 4 5 8 7 3 1 1 2 2 2 3 2 2 2 3 3 3 3 3 3 3 3
3 3 3 3 3 3 3 3 3 3 3 4 4 4 3 3 3 3 3 4 5 6 5 3 3 4 2 2 2 2 2 2 2 2 2 2 3 3 3 3 4 3 3 3
3 3 2 3 3 2 2 2 3 3 3 4 5 4 4 4 3 4 4 4 4 4 4 3 3 2 2 2 2 2 2 2 2 2 2 2 3 3 3 3 3 3 3 3
Wind_Direction
255 265 260 254 254 230 215 213 222 251 262 279 299 305 308 314 323 330 330 330 321 306 288 278 267 246 226 224 215 196 191 202 215 214 208 201 201 209 209 209 214 211 210 221
285 271 269 268 258 236 232 231 239 265 275 275 297 311 319 322 322 319 314 312 311 309 299 281 266 255 240 228 216 197 203 214 211 199 200 202 206 206 207 219 221 209 211 213
279 310 322 276 248 210 220 217 204 231 254 302 317 315 305 303 305 298 301 304 303 296 283 272 264 249 239 231 211 200 210 214 207 199 203 208 200 193 209 218 212 211 215 211
285 348 259 250 236 197 224 245 224 248 273 289 289 292 285 278 288 298 302 302 299 296 291 283 269 256 243 222 205 207 214 216 210 202 207 204 197 206 213 210 207 209 212 215
193 266 278 291 259 183 201 276 232 239 283 304 312 321 314 316 309 294 294 295 293 291 290 290 280 257 213 221 212 214 222 221 213 202 199 196 206 214 213 202 215 215 207 206
185 232 255 260 238 198 127 279 266 243 296 314 347 341 300 320 320 309 306 303 303 306 308 303 294 251 206 232 225 232 232 227 213 201 197 201 208 205 200 195 209 203 216 217
208 239 264 258 254 99 189 255 290 266 280 283 263 253 281 308 309 305 306 307 310 312 310 298 288 231 238 246 245 248 241 226 215 208 205 203 196 190 182 182 180 201 225 236
182 216 253 218 135 180 226 266 275 271 271 270 272 282 292 298 301 308 313 313 314 314 309 302 272 226 250 258 262 254 227 224 226 219 209 191 180 186 181 177 189 215 230 259
197 218 252 209 220 239 231 258 268 265 277 276 278 285 294 298 301 303 304 306 308 303 305 305 280 239 251 267 262 234 220 229 233 223 211 191 182 185 185 185 195 216 217 240
249 264 265 262 259 259 245 250 266 269 275 272 272 283 292 295 298 300 300 303 307 309 306 302 294 271 258 264 248 223 228 235 226 216 219 206 198 192 192 197 205 214 221 233
255 276 297 274 249 260 274 274 280 284 274 267 271 279 282 288 292 292 295 299 301 297 295 294 294 285 276 259 231 233 239 236 227 217 213 213 213 210 207 210 205 210 219 217
241 240 237 265 270 269 273 278 281 288 292 285 268 272 282 285 287 289 292 295 295 290 287 289 288 285 281 261 232 226 242 239 229 221 218 213 216 246 240 232 241 240 236 230
244 258 253 270 280 274 269 273 278 277 275 285 286 277 280 284 287 286 288 287 284 283 284 285 284 283 280 262 240 230 235 237 230 220 216 216 212 212 249 273 248 243 241 241
253 269 277 274 274 283 280 284 289 288 284 278 281 287 285 286 288 287 285 283 285 287 287 283 280 279 277 258 243 241 240 235 228 221 216 214 214 215 215 223 245 258 247 248
259 250 255 274 283 288 290 291 296 296 298 300 295 292 290 287 287 287 288 289 291 289 286 284 280 280 277 251 243 245 243 239 228 221 217 215 213 214 218 224 235 251 269 266
273 280 270 268 272 281 288 284 281 286 291 294 297 296 292 287 286 288 289 286 282 283 285 283 279 280 271 247 245 249 246 246 236 219 214 212 210 215 224 226 232 237 243 247
246 267 270 276 279 283 280 272 269 274 282 286 288 294 299 300 298 294 292 287 278 277 278 277 279 284 269 248 238 243 244 244 242 231 217 215 216 222 227 230 236 240 246 244
235 246 256 260 268 279 285 284 280 280 279 281 289 293 293 291 289 291 295 300 300 297 288 277 276 282 270 251 240 236 232 232 225 224 222 222 229 227 231 236 242 249 258 253
280 279 288 287 278 273 277 281 283 283 285 287 285 282 281 280 281 286 293 298 296 295 295 290 293 288 273 261 254 231 227 228 231 233 230 242 247 235 237 241 244 248 254 258
317 308 305 304 304 291 283 285 286 287 287 284 282 286 290 290 287 287 290 287 276 271 281 291 292 281 272 260 258 229 226 226 229 233 232 227 231 241 244 245 244 248 254 254
309 308 310 313 311 305 296 295 296 295 296 291 283 285 289 294 295 293 296 299 299 292 293 298 298 284 278 270 265 231 224 224 227 229 231 232 235 243 247 247 249 252 254 257
298 299 303 308 310 310 310 306 301 299 303 302 298 294 296 301 305 303 286 276 292 308 312 292 283 282 285 286 249 231 228 230 232 231 233 233 234 240 246 248 249 252 252 252
290 289 297 302 301 302 311 315 310 306 303 302 302 302 299 297 298 299 304 303 305 311 312 292 292 295 298 295 248 238 235 235 235 233 234 235 238 240 241 244 248 250 250 252
293 295 297 298 301 307 310 312 313 309 303 300 300 299 299 306 307 292 281 305 316 318 313 304 307 306 311 297 254 246 243 244 244 240 239 242 243 242 242 244 250 252 252 254
294 296 297 303 302 295 294 304 314 316 317 316 316 315 308 296 293 305 311 310 313 320 316 313 316 318 323 297 274 264 258 251 251 250 236 239 241 243 246 247 248 252 253 252
293 295 290 284 281 284 292 301 307 313 318 318 320 322 321 318 312 311 315 316 317 321 322 315 313 317 313 298 286 276 267 272 282 273 251 250 247 250 252 253 253 253 253 253
299 298 300 303 300 291 291 293 297 304 309 309 311 317 321 323 323 321 320 321 321 321 319 317 316 313 308 302 296 290 285 279 272 266 261 255 251 251 252 253 257 258 259 258